When you browse on this site, cookies collect data to enhance your experience and personalize the content and advertising you see.
Visit our Privacy Policy to learn more. By continuing to use the site, you agree to this use of cookies and data.
  • In Spain
  • List of Countries
  • For 7 days
  • Water Temperature
  • Weather Map
  • Weather Widgets
  • user-avatar
    Login

    Hourly Weather Elbasan

    Today, 17 October, Thursday

    Time Temperature Precipitation Wind Pressure Humidity
    00:00 +19°C° 0 mm 1 mps 736 mmHg 64%
    01:00 +19°C° 0 mm 1 mps 736 mmHg 65%
    02:00 +19°C° 0 mm 1 mps 736 mmHg 65%
    03:00 +18°C° 0 mm 1 mps 736 mmHg 65%
    04:00 +18°C° 0 mm 1 mps 736 mmHg 65%
    05:00 +19°C° 0 mm 1 mps 736 mmHg 63%
    06:00 +19°C° 0 mm 1 mps 736 mmHg 61%
    07:00 +20°C° 0 mm 1 mps 737 mmHg 58%
    08:00 +22°C° 0 mm 1 mps 737 mmHg 53%
    09:00 +24°C° 0 mm 1 mps 737 mmHg 47%
    10:00 +26°C° 0 mm 1 mps 737 mmHg 41%
    11:00 +26°C° 0 mm 1 mps 737 mmHg 41%
    12:00 +27°C° 0 mm 2 mps 737 mmHg 40%
    13:00 +27°C° 0 mm 2 mps 737 mmHg 39%
    14:00 +26°C° 0 mm 2 mps 737 mmHg 44%
    15:00 +25°C° 0 mm 2 mps 736 mmHg 49%
    16:00 +24°C° 0 mm 2 mps 736 mmHg 55%
    17:00 +23°C° 0 mm 1 mps 736 mmHg 61%
    18:00 +21°C° 0 mm 1 mps 736 mmHg 67%
    19:00 +18°C° 0 mm 0 mps 736 mmHg 74%
    20:00 +17°C° 0 mm 0 mps 737 mmHg 75%
    21:00 +17°C° 0 mm 0 mps 737 mmHg 76%
    22:00 +17°C° 0 mm 0 mps 737 mmHg 76%
    23:00 +17°C° 0 mm 0 mps 737 mmHg 76%

    Tomorrow, 18 October, Friday

    Time Temperature Precipitation Wind Pressure Humidity
    00:00 +16°C° 0 mm 0 mps 737 mmHg 76%
    01:00 +18°C° 0 mm 1 mps 737 mmHg 76%
    02:00 +18°C° 0 mm 1 mps 737 mmHg 76%
    03:00 +16°C° 0 mm 0 mps 736 mmHg 76%
    04:00 +16°C° 0 mm 0 mps 736 mmHg 76%
    05:00 +16°C° 0 mm 0 mps 736 mmHg 74%
    06:00 +17°C° 0 mm 0 mps 737 mmHg 71%
    07:00 +17°C° 0 mm 0 mps 737 mmHg 69%
    08:00 +21°C° 0 mm 1 mps 737 mmHg 62%
    09:00 +23°C° 0 mm 1 mps 737 mmHg 55%
    10:00 +25°C° 0 mm 1 mps 737 mmHg 48%
    11:00 +26°C° 0 mm 1 mps 737 mmHg 46%
    12:00 +26°C° 0 mm 2 mps 737 mmHg 44%
    13:00 +27°C° 0 mm 2 mps 736 mmHg 42%
    14:00 +26°C° 0 mm 2 mps 736 mmHg 48%
    15:00 +25°C° 0 mm 2 mps 736 mmHg 53%
    16:00 +24°C° 0 mm 3 mps 736 mmHg 59%
    17:00 +21°C° 0 mm 2 mps 736 mmHg 67%
    18:00 +21°C° 0 mm 1 mps 736 mmHg 75%
    19:00 +17°C° 0 mm 0 mps 736 mmHg 83%
    20:00 +17°C° 0 mm 0 mps 736 mmHg 84%
    21:00 +16°C° 0 mm 0 mps 737 mmHg 84%
    22:00 +18°C° 0 mm 1 mps 737 mmHg 85%
    23:00 +18°C° 0 mm 1 mps 737 mmHg 84%

    Day after tomorrow, 19 October, Saturday

    Time Temperature Precipitation Wind Pressure Humidity
    00:00 +16°C° 0 mm 0 mps 737 mmHg 84%
    01:00 +16°C° 0 mm 0 mps 736 mmHg 83%
    02:00 +16°C° 0 mm 1 mps 736 mmHg 82%
    03:00 +16°C° 0 mm 1 mps 736 mmHg 82%
    04:00 +16°C° 0 mm 1 mps 736 mmHg 81%
    05:00 +18°C° 0 mm 1 mps 737 mmHg 78%
    06:00 +18°C° 0 mm 1 mps 737 mmHg 76%
    07:00 +19°C° 0 mm 1 mps 737 mmHg 73%
    08:00 +21°C° 0 mm 1 mps 737 mmHg 66%
    09:00 +22°C° 0 mm 1 mps 737 mmHg 59%
    10:00 +24°C° 0 mm 1 mps 737 mmHg 52%
    11:00 +25°C° 0 mm 2 mps 737 mmHg 50%
    12:00 +25°C° 0 mm 2 mps 737 mmHg 48%
    13:00 +26°C° 0 mm 2 mps 737 mmHg 46%
    14:00 +25°C° 0 mm 2 mps 737 mmHg 51%
    15:00 +24°C° 0 mm 2 mps 737 mmHg 56%
    16:00 +23°C° 0 mm 2 mps 736 mmHg 60%
    17:00 +21°C° 0 mm 2 mps 737 mmHg 69%
    18:00 +20°C° 0 mm 1 mps 737 mmHg 77%
    19:00 +16°C° 0 mm 0 mps 737 mmHg 85%
    20:00 +16°C° 0 mm 0 mps 737 mmHg 85%
    21:00 +16°C° 0 mm 0 mps 738 mmHg 85%
    22:00 +18°C° 0 mm 1 mps 738 mmHg 86%
    23:00 +18°C° 0 mm 1 mps 738 mmHg 84%

    20 October, Sunday

    Time Temperature Precipitation Wind Pressure Humidity
    00:00 +18°C° 0 mm 1 mps 738 mmHg 83%
    01:00 +18°C° 0 mm 1 mps 738 mmHg 82%
    02:00 +16°C° 0 mm 1 mps 738 mmHg 81%
    03:00 +16°C° 0 mm 1 mps 738 mmHg 81%
    04:00 +16°C° 0 mm 1 mps 738 mmHg 80%
    05:00 +18°C° 0 mm 1 mps 738 mmHg 77%
    06:00 +18°C° 0 mm 1 mps 738 mmHg 74%
    07:00 +19°C° 0 mm 1 mps 738 mmHg 71%
    08:00 +21°C° 0 mm 1 mps 738 mmHg 64%
    09:00 +23°C° 0 mm 1 mps 739 mmHg 56%
    10:00 +25°C° 0 mm 1 mps 739 mmHg 48%
    11:00 +25°C° 0 mm 1 mps 739 mmHg 46%
    12:00 +26°C° 0 mm 2 mps 739 mmHg 44%
    13:00 +27°C° 0 mm 2 mps 738 mmHg 42%
    14:00 +26°C° 0 mm 2 mps 738 mmHg 47%
    15:00 +25°C° 0 mm 2 mps 738 mmHg 52%
    16:00 +24°C° 0 mm 2 mps 738 mmHg 56%
    17:00 +22°C° 0 mm 1 mps 738 mmHg 63%
    18:00 +21°C° 0 mm 1 mps 738 mmHg 71%
    19:00 +17°C° 0 mm 0 mps 738 mmHg 78%
    20:00 +17°C° 0 mm 0 mps 739 mmHg 77%
    21:00 +17°C° 0 mm 0 mps 739 mmHg 77%
    22:00 +19°C° 0 mm 1 mps 739 mmHg 76%
    23:00 +18°C° 0 mm 1 mps 739 mmHg 76%

    21 October, Monday

    Time Temperature Precipitation Wind Pressure Humidity
    00:00 +18°C° 0 mm 1 mps 739 mmHg 75%
    01:00 +18°C° 0 mm 1 mps 739 mmHg 75%
    02:00 +18°C° 0 mm 1 mps 739 mmHg 74%
    03:00 +18°C° 0 mm 1 mps 738 mmHg 74%
    04:00 +18°C° 0 mm 1 mps 738 mmHg 73%
    05:00 +18°C° 0 mm 1 mps 738 mmHg 70%
    06:00 +19°C° 0 mm 1 mps 738 mmHg 68%
    07:00 +19°C° 0 mm 1 mps 739 mmHg 65%
    08:00 +21°C° 0 mm 1 mps 739 mmHg 57%
    09:00 +24°C° 0 mm 1 mps 739 mmHg 50%
    10:00 +26°C° 0 mm 1 mps 739 mmHg 42%
    11:00 +27°C° 0 mm 1 mps 739 mmHg 40%
    12:00 +27°C° 0 mm 2 mps 739 mmHg 38%
    13:00 +28°C° 0 mm 2 mps 738 mmHg 36%
    14:00 +27°C° 0 mm 2 mps 738 mmHg 41%
    15:00 +26°C° 0 mm 2 mps 738 mmHg 45%
    16:00 +25°C° 0 mm 2 mps 738 mmHg 49%
    17:00 +23°C° 0 mm 1 mps 738 mmHg 55%
    18:00 +21°C° 0 mm 1 mps 738 mmHg 60%
    19:00 +18°C° 0 mm 0 mps 738 mmHg 66%
    20:00 +20°C° 0 mm 1 mps 738 mmHg 64%
    21:00 +19°C° 0 mm 1 mps 738 mmHg 63%
    22:00 +19°C° 0 mm 1 mps 738 mmHg 62%
    23:00 +19°C° 0 mm 1 mps 738 mmHg 62%

    22 October, Tuesday

    Time Temperature Precipitation Wind Pressure Humidity
    00:00 +19°C° 0 mm 1 mps 738 mmHg 61%
    01:00 +19°C° 0 mm 1 mps 738 mmHg 61%
    02:00 +19°C° 0 mm 1 mps 738 mmHg 60%
    03:00 +18°C° 0 mm 1 mps 738 mmHg 60%
    04:00 +18°C° 0 mm 1 mps 738 mmHg 60%
    05:00 +19°C° 0 mm 1 mps 738 mmHg 59%
    06:00 +19°C° 0 mm 1 mps 738 mmHg 58%
    07:00 +19°C° 0 mm 1 mps 738 mmHg 57%
    08:00 +22°C° 0 mm 1 mps 738 mmHg 49%
    09:00 +24°C° 0 mm 1 mps 739 mmHg 42%
    10:00 +27°C° 0 mm 1 mps 739 mmHg 34%
    11:00 +28°C° 0 mm 1 mps 739 mmHg 32%
    12:00 +28°C° 0 mm 2 mps 738 mmHg 31%
    13:00 +29°C° 0 mm 2 mps 738 mmHg 29%
    14:00 +28°C° 0 mm 2 mps 738 mmHg 34%
    15:00 +27°C° 0 mm 2 mps 738 mmHg 38%
    16:00 +25°C° 0 mm 2 mps 737 mmHg 43%
    17:00 +24°C° 0 mm 1 mps 737 mmHg 47%
    18:00 +22°C° 0 mm 1 mps 737 mmHg 50%
    19:00 +21°C° 0 mm 1 mps 738 mmHg 53%
    20:00 +20°C° 0 mm 1 mps 738 mmHg 52%
    21:00 +20°C° 0 mm 1 mps 738 mmHg 52%
    22:00 +20°C° 0 mm 1 mps 738 mmHg 51%
    23:00 +20°C° 0 mm 1 mps 738 mmHg 51%
    Show more